This is the latest recevied weather packets stored in our database for station/object KH6DH-13. If no packets are shown the sender has not sent any weather packets the latest 10 day(s).
| Time | Temp. | Humidity | Pressure | Rain* | Wind** | Luminosity | Snow |
|---|---|---|---|---|---|---|---|
| 1787980622 | 26.11° C | - | - | 0 mm | 2.24 m/s, 80° | - | - |
| 1787980021 | 26.11° C | - | - | 0 mm | 0.89 m/s, 53° | - | - |
| 1787979420 | 26.67° C | - | - | 0 mm | 1.79 m/s, 167° | - | - |
| 1787978819 | 26.67° C | - | - | 0 mm | 1.34 m/s, 10° | - | - |
| 1787978218 | 26.67° C | - | - | 0 mm | 2.24 m/s, 46° | - | - |
| 1787977617 | 27.78° C | - | - | 0 mm | 3.58 m/s, 30° | - | - |
| 1787977016 | 27.78° C | - | - | 0 mm | 0.45 m/s, 52° | - | - |
| 1787976415 | 28.33° C | - | - | 0 mm | 0 m/s | - | - |
| 1787975814 | 29.44° C | - | - | 0 mm | 1.34 m/s, 165° | - | - |
| 1787975213 | 29.44° C | - | - | 0 mm | 0.89 m/s, 30° | - | - |
| 1787974612 | 29.44° C | - | - | 0 mm | 1.79 m/s, 66° | - | - |
| 1787974011 | 30° C | - | - | 0 mm | 1.79 m/s, 7° | - | - |
| 1787973410 | 30.56° C | - | - | 0 mm | 1.79 m/s, 96° | - | - |
| 1787972809 | 30.56° C | - | - | 0 mm | 3.13 m/s, 38° | - | - |
| 1787972208 | 30.56° C | - | - | 0 mm | 1.34 m/s, 335° | - | - |
| 1787971607 | 31.11° C | - | - | 0 mm | 1.34 m/s, 39° | - | - |
| 1787971006 | 30.56° C | - | - | 0 mm | 1.79 m/s, 72° | - | - |
| 1787970405 | 30.56° C | - | - | 0 mm | 3.58 m/s, 98° | - | - |
| 1787969804 | 30.56° C | - | - | 0 mm | 2.24 m/s, 338° | - | - |
| 1787969203 | 30.56° C | - | - | 0 mm | 0.89 m/s, 359° | - | - |
| 1787968602 | 30.56° C | - | - | 0 mm | 3.13 m/s, 96° | - | - |
| 1787968001 | 30.56° C | - | - | 0 mm | 1.79 m/s, 89° | - | - |
| 1787967400 | 30.56° C | - | - | 0 mm | 2.24 m/s, 55° | - | - |
| 1787966799 | 30° C | - | - | 0 mm | 3.13 m/s, 52° | - | - |
| 1787966198 | 30.56° C | - | - | 0 mm | 1.34 m/s, 68° | - | - |
* Rain latest hour (hover to see other rain measurements)
** Current wind speed in m/s (hover to see current wind gust speed)